Flight Track Log - Related Links

Times and Time Zones

All times are in EDT time to prevent confusion due to time zone crossing. See the CTL11 flight status page for this flight to view local times or setup timezone preferences in your user account.

Time Position Orientation Groundspeed Altitude Reporting Facility
EDT Latitude Longitude Course Direction KTS MPH feet Rate Location/Type
Fri 08:43:12 PM 30.1722 -97.5578 71° East 115 132 2,700  Level Fort Worth Center
Fri 08:44:14 PM 30.2111 -97.5456 15° North 140 161 3,200 387 Climbing Fort Worth Center
Fri 08:45:16 PM 30.2500 -97.5369 11° North 143 165 3,500 146 Climbing Fort Worth Center
Fri 08:46:00 PM 30.4554 -97.5820 12° North  Level FlightAware Approximate
Fri 08:46:17 PM 30.2967 -97.5233 14° North 157 181 3,500  Level Fort Worth Center
Fri 08:47:00 PM 30.5014 -97.5705 12° North  Level FlightAware Approximate
Fri 08:47:26 PM 30.3581 -97.5092 11° North 180 207 3,400  Level Houston Center
Fri 08:48:28 PM 30.4081 -97.4939 15° North 181 208 3,500 49 Climbing Houston Center
Fri 08:49:29 PM 30.4583 -97.4833 10° North 181 208 3,500  Level Houston Center
Fri 08:50:31 PM 30.5083 -97.4711 12° North 182 209 3,500  Level Houston Center
Fri 08:51:33 PM 30.5692 -97.4592 10° North 182 209 3,500  Level Houston Center
Fri 08:52:34 PM 30.6192 -97.4453 13° North 182 209 3,500  Level Houston Center
Fri 08:53:36 PM 30.6686 -97.4311 14° North 182 209 3,500  Level Houston Center
Fri 08:54:38 PM 30.7178 -97.4169 14° North 182 209 3,500 -49 Level Houston Center
Fri 08:55:39 PM 30.7664 -97.3994 17° North 182 209 3,400  Descending Houston Center
Fri 08:56:41 PM 30.8147 -97.3811 18° North 183 211 3,500 48 Climbing Houston Center
Fri 08:57:43 PM 30.8636 -97.3633 17° North 182 209 3,500  Level Houston Center
Fri 08:58:41 PM 30.9114 -97.3464 17° North 183 211 3,500  Level Fort Worth Center
Fri 08:59:42 PM 30.9617 -97.3278 18° North 183 211 3,500  Level Fort Worth Center
Fri 09:00:44 PM 31.0108 -97.3072 20° North 183 211 3,500  Level Fort Worth Center
Fri 09:01:46 PM 31.0600 -97.2886 18° North 183 211 3,500  Level Fort Worth Center
Fri 09:02:48 PM 31.1083 -97.2703 18° North 183 211 3,500 -48 Level Fort Worth Center
Fri 09:03:50 PM 31.1564 -97.2525 18° North 183 211 3,400 -435 Descending Fort Worth Center
Fri 09:04:52 PM 31.2164 -97.2294 18° North 184 212 2,600 49 Descending Fort Worth Center
Fri 09:05:53 PM 31.2569 -97.2128 19° North 168 193 3,500 537 Climbing Fort Worth Center
Fri 09:06:55 PM 31.3006 -97.1992 15° North 161 185 3,700 48 Climbing Fort Worth Center
Fri 09:07:57 PM 31.3483 -97.1842 15° North 168 193 3,600 -97 Descending Fort Worth Center
Fri 09:08:59 PM 31.3972 -97.1647 19° North 177 204 3,500 -49 Descending Fort Worth Center
Fri 09:10:00 PM 31.4481 -97.1461 17° North 184 212 3,500 -49 Level Fort Worth Center
Fri 09:11:02 PM 31.4981 -97.1281 17° North 185 213 3,400 -48 Descending Fort Worth Center
Fri 09:12:04 PM 31.5553 -97.1053 19° North 185 213 3,400 48 Level Fort Worth Center
Fri 09:13:06 PM 31.6039 -97.0858 19° North 185 213 3,500 49 Climbing Fort Worth Center
Fri 09:14:07 PM 31.6514 -97.0653 20° North 185 213 3,500  Level Fort Worth Center
Fri 09:15:09 PM 31.7003 -97.0483 16° North 185 213 3,500  Level Fort Worth Center
Fri 09:16:11 PM 31.7508 -97.0319 15° North 185 213 3,500  Level Fort Worth Center
Fri 09:17:12 PM 31.7978 -97.0122 20° North 183 211 3,500  Level Fort Worth Center
Fri 09:18:14 PM 31.8469 -96.9925 19° North 183 211 3,500  Level Fort Worth Center
Fri 09:19:16 PM 31.9047 -96.9714 17° North 183 211 3,500 -48 Level Fort Worth Center
Fri 09:20:18 PM 31.9533 -96.9553 16° North 183 211 3,400 -49 Descending Fort Worth Center
Fri 09:21:19 PM 31.9981 -96.9392 17° North 183 211 3,400 49 Level Fort Worth Center
Fri 09:22:21 PM 32.0572 -96.9169 18° North 184 212 3,500  Climbing Fort Worth Center
Fri 09:23:23 PM 32.1058 -96.8997 17° North 184 212 3,400  Descending Fort Worth Center
Fri 09:24:24 PM 32.1558 -96.8833 16° North 184 212 3,500 -146 Climbing Fort Worth Center
Fri 09:25:26 PM 32.2061 -96.8661 16° North 184 212 3,100 -484 Descending Fort Worth Center
Fri 09:26:28 PM 32.2672 -96.8486 14° North 200 230 2,500 -293 Descending Fort Worth Center
Fri 09:27:29 PM 32.3186 -96.8256 21° North 201 231 2,500  Level Fort Worth Center
Fri 09:28:31 PM 32.3722 -96.8072 16° North 189 217 2,500  Level Fort Worth Center
Fri 09:29:32 PM 32.4217 -96.7883 18° North 186 214 2,500 -49 Level Fort Worth Center
Fri 09:30:34 PM 32.4767 -96.7717 14° North 188 216 2,400  Descending Fort Worth Center
Fri 09:31:36 PM 32.5089 -96.7617 15° North 136 157 2,500 48 Climbing Fort Worth Center
Fri 09:32:38 PM 32.5594 -96.7650 357° North 176 203 2,500  Level Fort Worth Center
Fri 09:33:39 PM 32.6150 -96.7667 359° North 181 208 2,500  Level Fort Worth Center
Fri 09:34:41 PM 32.6683 -96.7675 359° North 187 215 2,500  Level Fort Worth Center
Fri 09:35:42 PM 32.7200 -96.7700 358° North 187 215 2,500 -244 Level Fort Worth Center
Fri 09:36:44 PM 32.7761 -96.7781 353° North 187 215 2,000 -629 Descending Fort Worth Center
Fri 09:37:46 PM 32.8144 -96.8061 328° Northwest 157 181 1,200 -634 Descending Fort Worth Center
Fri 09:38:47 PM 32.8425 -96.8378 317° Northwest 144 166 700 -492 Descending Fort Worth Center
Fri 09:40:00 PM 32.8333 -96.8500 270° West  Level FlightAware Approximate
Fri 09:47:00 PM 32.8471 -96.8518 270° West  Level Estimated
Fri 09:48:00 PM 32.8471 -96.8518 270° West  Level Estimated

Login

Don't have an account? Register now (free) for customized features, flight alerts, and more!